Weather History for KMKC - September, 2012

Change the Weather History Date:

Tuesday, September 25, 2012

  Actual Average Record
Temperature  
Mean Temperature 73 °F -  
Max Temperature 82 °F 74 °F 90 °F (1998)
Min Temperature 64 °F 53 °F 41 °F (2001)
Cooling Degree Days 8    
Growing Degree Days 23 (Base 50)    
Moisture  
Dew Point 61 °F    
Average Humidity 67    
Maximum Humidity 87    
Minimum Humidity 47    
Precipitation  
Precipitation 0.01 in - - ()
Sea Level Pressure  
Sea Level Pressure 29.79 in    
Wind  
Wind Speed 5 mph (SW)    
Max Wind Speed 14 mph    
Max Gust Speed -    
Visibility 10 miles    
Events Rain , Thunderstorm    
Averages and records for this station are not official NWS values.
T = Trace of Precipitation, MM = Missing Value Source: NWS Daily Summary

Daily Weather History Graph

Daily Weather History Graph

Search for Another Location

Airport or City:

Trip Planner

Search our weather history database for the weather conditions in past years. The results will help you decide how hot, cold, wet, or windy it might be!

Date:

Astronomy

Sep. 25, 2012 Rise Set
Actual Time 7:09 AM CDT 7:09 PM CDT
Civil Twilight 6:42 AM CDT 7:36 PM CDT
Nautical Twilight 6:11 AM CDT 8:07 PM CDT
Astronomical Twilight 5:39 AM CDT 8:38 PM CDT
Moon 4:33 PM CDT (9/25) 2:33 AM CDT (9/25)
Length of Visible Light 12h 53m
Length of Day
12h 00m
Waxing Gibbous, 80% of the Moon is Illuminated
Sep 25
Waxing Gibbous
Sep 29
Full
Oct 8
Last Quarter
Oct 15
New
Oct 21
First Quarter

Hourly Weather History & Observations

Time (CDT) Temp. Heat Index Dew Point Humidity Pressure Visibility Wind Dir Wind Speed Gust Speed Precip Events Conditions
12:54 AM 69.1 °F - 57.9 °F 68% 29.78 in 10.0 mi East 8.1 mph - N/A   Partly Cloudy
1:54 AM 71.1 °F - 60.1 °F 68% 29.75 in 10.0 mi South 4.6 mph - N/A   Clear
2:10 AM 73.4 °F - 60.8 °F 65% 29.78 in 10.0 mi Calm Calm - N/A Thunderstorm Partly Cloudy
2:45 AM 69.8 °F - 62.6 °F 78% 29.77 in 10.0 mi SSE 4.6 mph - 0.00 in Rain Light Rain
2:54 AM 69.1 °F - 63.0 °F 81% 29.74 in 10.0 mi South 5.8 mph - 0.00 in   Scattered Clouds
3:10 AM 69.8 °F - 62.6 °F 78% 29.76 in 10.0 mi South 4.6 mph - N/A Thunderstorm Mostly Cloudy
3:30 AM 71.6 °F - 62.6 °F 73% 29.75 in 10.0 mi South 4.6 mph - N/A   Scattered Clouds
3:54 AM 72.0 °F - 62.1 °F 71% 29.74 in 10.0 mi Calm Calm - N/A   Clear
4:54 AM 66.9 °F - 63.0 °F 87% 29.75 in 10.0 mi Calm Calm - 0.00 in   Clear
5:54 AM 66.0 °F - 62.1 °F 87% 29.76 in 10.0 mi North 3.5 mph - N/A   Clear
6:54 AM 64.9 °F - 61.0 °F 87% 29.77 in 10.0 mi Calm Calm - N/A   Clear
7:54 AM 70.0 °F - 60.1 °F 71% 29.78 in 10.0 mi SSW 5.8 mph - N/A   Clear
8:54 AM 72.0 °F - 59.0 °F 64% 29.79 in 10.0 mi West 3.5 mph - N/A   Clear
9:54 AM 70.0 °F - 62.1 °F 76% 29.80 in 10.0 mi Calm Calm - N/A   Scattered Clouds
10:54 AM 73.9 °F - 59.0 °F 59% 29.81 in 10.0 mi WSW 5.8 mph - N/A   Clear
11:54 AM 77.0 °F - 59.0 °F 54% 29.81 in 10.0 mi West 8.1 mph - N/A   Clear
12:54 PM 79.0 °F - 60.1 °F 52% 29.80 in 10.0 mi WSW 11.5 mph - N/A   Clear
1:54 PM 80.6 °F 81.5 °F 60.8 °F 51% 29.80 in 10.0 mi WSW 9.2 mph - N/A   Clear
2:54 PM 80.1 °F 81.2 °F 62.1 °F 54% 29.78 in 10.0 mi West 6.9 mph - N/A   Clear
3:54 PM 82.0 °F 83.0 °F 62.1 °F 51% 29.78 in 10.0 mi Variable 4.6 mph - 0.00 in   Clear
4:54 PM 82.0 °F 82.4 °F 60.1 °F 47% 29.77 in 10.0 mi WSW 4.6 mph - N/A   Clear
5:54 PM 81.0 °F 81.3 °F 59.0 °F 47% 29.80 in 10.0 mi WSW 4.6 mph - N/A   Clear
6:54 PM 79.0 °F - 61.0 °F 54% 29.79 in 10.0 mi Calm Calm - N/A   Scattered Clouds
7:54 PM 75.0 °F - 62.1 °F 64% 29.78 in 10.0 mi Calm Calm - N/A   Clear
8:54 PM 75.0 °F - 62.1 °F 64% 29.79 in 10.0 mi Calm Calm - N/A   Clear
9:54 PM 75.9 °F - 62.1 °F 62% 29.87 in 10.0 mi South 13.8 mph - N/A   Mostly Cloudy
10:54 PM 70.0 °F - 62.1 °F 76% 29.87 in 10.0 mi SSW 9.2 mph - 0.01 in Rain Light Rain
11:54 PM 69.8 °F - 62.6 °F 78% 29.85 in 10.0 mi SSW 8.1 mph - N/A   Partly Cloudy